Weather History for Grand Junction, CO

Change the Weather History Date:

Thursday, October 16, 2014

  Actual Average Record
Temperature  
Mean Temperature 59 °F 53 °F  
Max Temperature 73 °F 66 °F 80 °F (1991)
Min Temperature 44 °F 40 °F 29 °F (2013)
Degree Days  
Heating Degree Days 6 12  
Month to date heating degree days 171 144  
Since 1 July heating degree days 217 218  
Cooling Degree Days 0 0  
Month to date cooling degree days 0 1  
Year to date cooling degree days 1046 1123  
Growing Degree Days 10 (Base 50)    
Moisture  
Dew Point 34 °F    
Average Humidity 42    
Maximum Humidity 60    
Minimum Humidity 24    
Precipitation  
Precipitation 0.00 in 0.03 in 0.48 in (1965)
Month to date precipitation 0.57 0.58  
Year to date precipitation 10.50 7.62  
Snow  
Snow 0.00 in 0.00 in 0.00 in (2013)
Month to date snowfall 0.0 0.1  
Since 1 July snowfall 0.0 0.1  
Since 1 September snowfall 0.0 0.1  
Snow Depth 0.00 in    
Sea Level Pressure  
Sea Level Pressure 29.95 in    
Wind  
Wind Speed 7 mph (East)    
Max Wind Speed 17 mph    
Max Gust Speed 20 mph    
Visibility 10 miles    
Events      
T = Trace of Precipitation, MM = Missing Value Source: NWS Daily Summary

Daily Weather History Graph

Daily Weather History Graph

Search for Another Location

Airport:

Trip Planner

Search our weather history database for the weather conditions in past years. The results will help you decide how hot, cold, wet, or windy it might be!

Date:

Astronomy

Oct. 16, 2014 Rise Set
Actual Time 7:24 AM MDT 6:33 PM MDT
Civil Twilight 6:57 AM MDT 7:00 PM MDT
Nautical Twilight 6:26 AM MDT 7:31 PM MDT
Astronomical Twilight 5:55 AM MDT 8:02 PM MDT
Moon 12:40 AM MDT (10/16) 2:44 PM MDT (10/16)
Length of Visible Light 12h 02m
Length of Day
11h 09m
Last Quarter, 41% of the Moon is Illuminated
Oct 16
Last Quarter
Oct 23
New
Oct 30
First Quarter
Nov 6
Full
Nov 14
Last Quarter

Hourly Weather History & Observations

Time (MDT) Temp. Dew Point Humidity Pressure Visibility Wind Dir Wind Speed Gust Speed Precip Events Conditions
12:53 AM 51.1 °F 33.1 °F 50% 29.92 in 10.0 mi ESE 5.8 mph - N/A   Clear
1:53 AM 48.0 °F 34.0 °F 58% 29.94 in 10.0 mi ESE 9.2 mph - N/A   Clear
2:53 AM 50.0 °F 33.8 °F 54% 30.05 in 10.0 mi ESE 9.2 mph - N/A   Clear
3:53 AM 48.9 °F 33.1 °F 54% 29.94 in 10.0 mi East 5.8 mph - N/A   Clear
4:53 AM 46.9 °F 34.0 °F 61% 29.96 in 10.0 mi ESE 10.4 mph - N/A   Clear
5:53 AM 48.0 °F 33.1 °F 56% 29.97 in 10.0 mi East 5.8 mph - N/A   Clear
6:53 AM 48.9 °F 33.1 °F 54% 29.99 in 10.0 mi ESE 10.4 mph - N/A   Clear
7:53 AM 51.1 °F 35.1 °F 54% 30.00 in 10.0 mi SE 10.4 mph - N/A   Clear
8:53 AM 54.0 °F 37.0 °F 53% 30.01 in 10.0 mi SE 13.8 mph - N/A   Clear
9:53 AM 57.0 °F 39.0 °F 51% 30.03 in 10.0 mi SSE 3.5 mph - N/A   Clear
10:53 AM 61.0 °F 41.0 °F 48% 30.01 in 10.0 mi Variable 4.6 mph - N/A   Clear
11:53 AM 66.0 °F 42.1 °F 42% 29.98 in 10.0 mi Calm Calm - N/A   Clear
12:53 PM 70.0 °F 42.1 °F 36% 29.94 in 10.0 mi WNW 6.9 mph - N/A   Clear
1:53 PM 71.1 °F 39.0 °F 31% 29.93 in 10.0 mi NW 9.2 mph 18.4 mph N/A   Clear
2:53 PM 72.0 °F 37.9 °F 29% 29.90 in 10.0 mi NW 10.4 mph - N/A   Clear
3:53 PM 72.0 °F 36.0 °F 27% 29.89 in 10.0 mi NW 8.1 mph - N/A   Clear
4:53 PM 72.0 °F 35.1 °F 26% 29.88 in 10.0 mi WNW 4.6 mph - N/A   Clear
5:53 PM 68.0 °F 30.9 °F 25% 29.89 in 10.0 mi NNW 8.1 mph - N/A   Clear
6:53 PM 64.0 °F 28.9 °F 27% 29.91 in 10.0 mi North 8.1 mph - N/A   Clear
7:53 PM 59.0 °F 27.0 °F 29% 29.93 in 10.0 mi Calm Calm - N/A   Clear
8:53 PM 53.6 °F 26.6 °F 35% 30.04 in 10.0 mi East 3.5 mph - N/A   Clear
9:53 PM 53.1 °F 27.0 °F 37% 29.94 in 10.0 mi East 5.8 mph - N/A   Clear
10:53 PM 55.9 °F 30.0 °F 37% 29.94 in 10.0 mi East 5.8 mph - N/A   Clear
11:20 PM - - N/A% - - East 5.8 mph - N/A   Mostly Cloudy
11:53 PM 54.0 °F 28.9 °F 38% 29.93 in 10.0 mi ESE 3.5 mph - N/A   Clear